sat.trackr.live / text

‹ back to catalog

STARLINK-3247

NORAD 49747 · 2021-115Z

PAYLOAD ACTIVE UNKNOWN

§ Identity

Operator
Country
US
Launch date
2021-12-02
Launch site
AFETR
Launch vehicle
Mass (kg)
RCS (m²)

Purposes: comms

External: N2YO · Heavens-Above · Gunter

§ Orbital elements

Epoch: 2026-05-25T01:48:59.785344Z

Period
95.44 min
Inclination
53.2137°
Eccentricity
0.0001030
Mean motion
15.08840436 rev/d
Perigee alt
539.0 km
Apogee alt
540.5 km
Semi-major
6,917.9 km
B*
-3.7570e-5
RAAN
166.2085°
Arg perigee
79.1532°
Mean anomaly
280.9576°
Rev number
24,706

§ Raw data

STARLINK-32471 49747U 21115Z   26145.07569196 -.00000886  00000+0 -37570-4 0  99912 49747  53.2137 166.2085 0001030  79.1532 280.9576 15.08840436247068

JSON: /api/v1/satellites/49747 · /tle

For live sub-satellite position, see the globe view (requires WebGL).

§ Visibility from observer

Set your observer location to see the next 7 days of passes ≥ 10°. The values pass through the URL so the page stays shareable.

No JS? Fill the form by hand. The geolocation button needs JavaScript.